Location: *
(48.8167°N, 2.1333°E)
Time: 16:49:09
(UTC+00:00)

Daily predictions for brighter satellites

Satellite Brightness Start Highest point End
(mag) Time Altitude Azimuth Time Altitude Azimuth Time Altitude Azimuth
Cosmos 2360 Rocket 2.6 20:13:37 10° S 20:18:54 43° ESE 20:24:12 10° NE
Spot 2 Rocket 3.6 20:15:57 10° SSE 20:21:02 74° ENE 20:26:10 10° NNW
Cosmos 44 Rocket 3.4 20:16:08 10° SSW 20:21:15 75° SE 20:26:17 10° NE
Cosmos 2151 3.0 20:17:25 10° S 20:21:42 87° ESE 20:26:03 10° N
BREEZE-M DEB (TANK) 1.1 20:20:14 10° WSW 20:22:16 63° SSE 20:24:57 10° E
Resurs 01 Rocket 2.0 20:18:17 10° S 20:22:41 66° WSW 20:27:07 10° NNW
Cosmos 1980 Rocket 4.3 20:18:56 10° WSW 20:23:59 33° NW 20:29:03 10° NNE
Terra 3.5 20:21:05 10° ESE 20:24:29 20° ENE 20:27:55 10° NNE
SL-08 RB Rocket 4.1 20:21:26 10° S 20:25:52 63° WSW 20:30:20 10° NNW
USA 267 3.4 20:21:49 10° ESE 20:28:24 84° NNE 20:34:58 10° NW
CZ-2C R/B 3.3 20:24:04 10° NNE 20:28:48 34° E 20:33:28 10° SSE
SL-4 R/B 2.9 20:24:41 10° SSW 20:29:09 38° SE 20:33:36 10° ENE
Cosmos 1606 3.9 20:29:14 10° NNE 20:32:30 27° ENE 20:35:45 10° SE
SL-8 R/B 3.9 20:28:05 10° W 20:32:48 59° SSW 20:37:28 10° ESE
Cosmos 1500 Rocket 4.1 20:28:48 10° SSE 20:32:59 41° E 20:37:12 10° NNE
SPOT 1/Viking Rocket 4.2 20:28:21 10° SE 20:33:12 42° ENE 20:38:05 10° N
NOSS 5 (C) 4.3 20:30:17 10° SW 20:34:10 74° SE 20:37:18 10° NE
NOSS 3-1 (C) 3.9 20:30:45 10° S 20:35:42 34° ESE 20:41:18 10° NE
Cosmos 1900 4.4 20:32:13 10° SSW 20:37:19 66° ESE 20:42:26 10° NE
Cosmos 1242 Rocket 3.7 20:35:51 10° SSW 20:39:24 48° WNW 20:43:01 10° N
Cosmos 1825 2.7 20:41:39 10° SSE 20:45:12 41° E 20:48:46 10° NNE
ATLAS 5 CENTAUR R/B 4.4 20:41:33 10° NNW 20:45:13 19° NNE 20:49:12 10° ENE
Cosmos 1818 3.9 20:40:23 10° NW 20:45:50 61° NE 20:50:57 11° SE
Cosmos 2219 Rocket 3.2 20:42:48 10° SSE 20:47:21 25° ESE 20:51:55 10° NE
Cosmos 1356 Rocket 3.5 20:44:43 10° N 20:49:01 69° ENE 20:53:15 10° SSE
Cosmos 2322 Rocket 2.9 20:45:42 10° SW 20:51:20 61° WNW 20:57:01 10° NNE
Nadezhda 4 Rocket 4.1 20:45:51 10° N 20:52:12 87° W 20:58:26 10° S
SWARM C 4.5 20:49:55 10° S 20:53:15 80° E 20:56:37 10° N
SWARM A 4.3 20:50:04 10° S 20:53:24 85° W 20:56:46 10° N
MTI 4.4 20:51:34 10° N 20:54:43 58° WNW 20:57:50 10° SSW
Cosmos 1607 4.0 20:51:20 10° NW 20:57:32 79° NE 21:03:00 14° SE
Cosmos 2278 Rocket 3.4 20:53:22 10° NNW 20:58:27 32° NE 21:03:29 10° ESE
SL-16 R/B 3.3 20:54:06 10° SW 20:59:34 49° NW 21:05:06 10° NNE
Cosmos 1743 Rocket 3.5 20:56:55 10° S 21:01:17 88° E 21:05:39 10° N
DELTA 2 R/B (1) 4.4 20:58:03 10° SW 21:02:55 31° S 21:07:18 12° ESE
Cosmos 1844 Rocket 2.8 20:58:53 10° NNW 21:04:35 80° WSW 21:09:39 13° SSE
ADEOS Rocket 3.3 20:59:57 10° N 21:05:29 62° WNW 21:10:53 10° SSW
Cosmos 2333 Rocket 2.9 21:01:09 10° S 21:06:14 34° ESE 21:11:18 10° NE
CZ-2C R/B 4.1 21:01:38 10° S 21:06:41 43° W 21:11:29 10° NNW
Cosmos 2034 Rocket 4.3 21:01:08 10° SSW 21:07:22 74° W 21:13:43 10° N
ATLAS CENTAUR R/B 2.9 21:03:07 10° NNW 21:07:30 33° NE 21:11:37 10° ESE
EO 1 Del DPAF 3.1 21:03:54 10° NNE 21:07:42 72° ESE 21:11:30 10° S
Cosmos 1515 Rocket 4.3 21:03:44 10° NNW 21:07:57 50° W 21:12:08 10° SSW
Cosmos 2263 Rocket 4.5 21:06:06 10° WNW 21:09:54 19° W 21:13:41 10° SW
Cosmos 1140 Rocket 3.6 21:06:24 10° S 21:11:25 54° ESE 21:16:30 10° NNE
Cosmos 1954 Rocket 4.4 21:07:48 10° S 21:12:44 44° ESE 21:17:44 10° NE
Cosmos 1092 Rocket 4.0 21:07:22 10° N 21:13:39 89° E 21:19:35 11° S
USA 229 DEB 3.6 21:08:14 10° SSW 21:14:48 74° SE 21:21:43 10° NE
Cosmos 2322 3.7 21:09:15 10° SSW 21:14:52 72° ESE 21:20:32 10° NNE
USA 229 3.6 21:08:21 10° SSW 21:14:55 73° SE 21:21:49 10° NE
Meteor 2-3 Rocket 3.8 21:09:28 10° S 21:15:11 64° E 21:20:58 10° NNE
Mayak 0.9 21:14:57 10° ENE 21:16:15 11° E 21:17:18 10° E
Cosmos 1933 3.7 21:13:30 10° NNW 21:17:31 62° W 21:21:14 12° S
Cosmos 614 Rocket 3.9 21:12:34 10° SSW 21:17:38 81° ESE 21:22:44 10° NNE
NOSS 3-1 (A) 3.6 21:12:57 10° S 21:18:12 44° ESE 21:24:11 10° NE
Meteor 1-26 Rocket 4.2 21:15:22 10° NNW 21:21:02 89° W 21:25:45 14° S
Cosmos 407 Rocket 3.6 21:16:18 10° SSW 21:21:38 85° WNW 21:27:02 10° NNE
ERS-1 Rocket 3.1 21:17:31 13° S 21:22:01 77° WSW 21:27:06 10° NNW
Cosmos 1805 Rocket 3.6 21:22:15 15° S 21:25:44 60° E 21:30:02 10° NNE
SPOT 5 2.9 21:22:11 16° SSE 21:26:15 89° ENE 21:31:02 10° NNW
Landsat 4 4.2 21:26:06 10° NNE 21:29:37 40° E 21:31:28 23° SSE
Cosmos 1190 Rocket 4.1 21:25:33 10° SSW 21:30:45 79° WNW 21:36:02 10° NNE
Cosmos 292 Rocket 4.3 21:27:31 10° NNW 21:32:15 53° WSW 21:35:59 16° S
Landsat 7 4.2 21:28:30 14° S 21:32:34 63° WSW 21:37:19 10° NNW
Gbstr 26 Del rocket 3.4 21:29:53 10° W 21:33:43 54° N 21:37:23 10° ENE
USA 245 4.4 21:33:19 11° SW 21:34:48 19° W 21:36:34 10° NW
Cosmos 1408 4.1 21:32:00 10° SW 21:35:28 37° WNW 21:38:59 10° N
USA 215 3.6 21:29:21 10° NE 21:35:52 70° NNW 21:42:22 10° WSW
Cosmos 1633 4.2 21:35:49 17° ESE 21:36:30 18° E 21:39:01 10° NE
Cosmos 1634 Rocket 4.0 21:32:47 10° S 21:39:04 88° E 21:45:19 10° N
Thor Agena Rocket 3.5 21:34:48 10° NNE 21:39:52 88° WNW 21:44:57 10° SSW
Cosmos 2084 Rocket 4.2 21:36:20 10° NW 21:40:27 42° WSW 21:42:54 21° S
CARTOSAT-1 3.8 21:39:36 19° S 21:42:38 68° WSW 21:46:57 10° NNW
Cosmos 2026 Rocket 4.0 21:37:00 10° N 21:43:05 80° W 21:48:02 17° S
USA 81 4.4 21:38:14 10° NNW 21:43:28 62° W 21:48:03 13° S
Cosmos 1763 Rocket 4.4 21:38:53 10° N 21:43:45 38° ENE 21:47:06 18° ESE
Cosmos 1633 Rocket 3.5 21:44:07 25° SSE 21:46:14 45° E 21:50:24 10° NNE
Cosmos 1666 Rocket 3.8 21:44:08 23° SSE 21:46:43 56° E 21:51:07 10° NNE
Cosmos 1812 4.4 21:46:33 10° NNE 21:49:36 22° ENE 21:51:04 18° E
IRAS Rocket 4.4 21:46:32 22° SE 21:50:10 66° ENE 21:55:47 10° NNW
Cosmos 468 Rocket 4.4 21:46:17 10° NNW 21:51:30 56° ENE 21:54:39 23° SE
ISS -3.0 21:48:16 10° W 21:51:35 54° N 21:54:51 10° ENE
SL-16 R/B 4.0 21:52:00 13° ESE 21:52:54 14° E 21:55:36 10° ENE
Lacrosse 5 rocket 2.2 21:49:18 10° NW 21:53:51 54° NNE 21:57:20 16° ESE
Lacrosse 5 2.6 21:49:49 10° NW 21:54:46 50° NNE 21:59:28 11° E
COSMOS 2428 2.7 21:52:43 10° SSW 21:58:27 86° ESE 22:04:14 10° NNE
Sich 1 3.0 21:57:06 21° S 21:59:58 85° WNW 22:04:16 10° N
Cosmos 1980 4.2 21:57:46 24° SSE 22:00:38 41° ESE 22:05:57 10° NE
ALOS 2 4.5 21:58:38 13° E 22:00:57 20° ENE 22:04:07 10° NNE
Cosmos 1862 Rocket 3.9 21:56:53 10° N 22:01:08 52° ENE 22:03:01 30° SE
ASTEX 1 3.4 21:56:19 10° N 22:01:21 81° E 22:04:29 23° S
Terra 2.1 21:58:47 22° S 22:01:48 63° WSW 22:06:33 10° NNW
Cosmos 1655 Rocket 4.0 21:55:48 10° N 22:02:06 79° E 22:06:01 24° SSE
Cosmos 2360 Rocket 3.7 21:57:45 10° WSW 22:02:59 38° NW 22:08:14 10° NNE
Cosmos 1782 3.3 22:02:34 10° NNW 22:06:32 55° W 22:08:38 25° SSW
Cosmos 1470 Rocket 4.2 22:05:17 30° SE 22:06:47 40° E 22:10:55 10° NNE
Cosmos 2237 Rocket 2.6 22:04:32 26° SSE 22:07:13 43° ESE 22:12:30 10° NE
SL-4 R/B 2.4 22:03:52 10° WSW 22:08:44 81° NNW 22:13:30 10° ENE
CZ-2C R/B 3.9 22:04:20 10° N 22:09:08 38° WNW 22:13:53 10° SW
Meteor 1-10 Rocket 4.2 22:05:33 10° NNW 22:11:14 90° SE 22:14:33 27° S
MOS 1 Rocket 3.2 22:06:50 10° NNE 22:11:22 87° WNW 22:14:30 22° SSW
GP-B 4.1 22:07:34 10° NNE 22:11:35 32° E 22:13:00 26° ESE
USA 267 4.1 22:08:11 21° S 22:11:50 36° SW 22:17:48 10° WNW
Cosmos 2180 Rocket 4.4 22:08:19 22° S 22:12:29 79° E 22:18:39 10° NNE
NOSS 2-3 (C) 3.8 22:11:29 21° SSW 22:14:24 60° SE 22:19:37 10° NE
Cosmos 1400 Rocket 3.5 22:12:11 10° N 22:16:11 44° ENE 22:17:35 32° ESE
Meteor 2-6 Rocket 4.2 22:11:34 10° NNW 22:17:01 75° W 22:20:13 26° S
Cosmos 1862 3.3 22:17:51 38° SSE 22:19:14 68° E 22:23:13 10° NNE
Helios 1A 3.0 22:23:06 37° SE 22:24:36 68° ENE 22:28:46 10° N
Cosmos 2208 Rocket 4.1 22:19:10 10° NNW 22:24:38 72° ENE 22:27:16 31° SE
Spot 4 3.9 22:22:44 33° SSE 22:24:51 69° ENE 22:29:37 10° N
NOSS 3-1 (C) 4.1 22:20:32 10° WSW 22:26:11 57° NW 22:32:49 10° NE
Cosmos 1943 Rocket 4.2 22:26:18 10° N 22:30:22 20° NE 22:34:25 10° E
Cosmos 2219 Rocket 2.7 22:25:18 10° SW 22:30:54 60° WNW 22:36:32 10° NNE
ATLAS 5 CENTAUR R/B 3.4 22:26:08 10° NNW 22:31:19 39° NE 22:37:12 10° ESE
Cosmos 1570 Rocket 3.9 22:27:00 10° NNW 22:32:17 88° WSW 22:34:37 34° SSE
Cosmos 2266 Rocket 4.0 22:27:54 10° N 22:34:18 87° E 22:37:39 30° S
Cosmos 2297 4.1 22:34:31 10° NNW 22:40:07 58° ENE 22:43:08 27° SE
Cosmos 1814 Rocket 4.1 22:36:38 10° NNW 22:41:47 68° ENE 22:43:58 34° SE
Cosmos 2278 Rocket 2.6 22:37:18 10° NW 22:42:48 53° WSW 22:45:19 31° S
ARGOS Delta rocket 3.7 22:44:55 41° SSE 22:46:27 74° ENE 22:51:05 10° N
ATLAS CENTAUR R/B 2.0 22:42:08 10° NW 22:46:42 48° WSW 22:47:49 38° SSW
Nimbus 7 Rocket 4.4 22:43:34 10° NNE 22:49:32 78° ESE 22:52:40 30° S
Cosmos 2333 Rocket 3.2 22:44:53 10° SW 22:50:22 46° NW 22:55:51 10° NNE
Cosmos 540 Rocket 3.6 22:47:16 10° NNW 22:52:23 64° ENE 22:54:30 34° SE
Mayak -1.2 22:48:10 10° NNE 22:52:26 84° WNW 22:53:53 41° SSW
Helios 1B rocket 2.8 22:49:50 10° NNE 22:53:50 45° E 22:54:27 42° SE
Cosmos 1741 Rocket 4.2 22:50:34 21° SW 22:54:07 67° WNW 22:59:21 10° NNE
Lacrosse 4 Rocket 2.0 22:54:18 39° SE 22:54:38 40° ESE 22:58:48 10° NE
Cosmos 1867 3.9 22:50:18 10° SW 22:55:44 69° NW 23:01:15 10° NE
NOSS 0 Rocket 4.1 22:52:31 14° SW 22:57:52 73° WNW 23:04:04 10° NNE
Meteor 1-27 Rocket 4.0 22:52:14 10° NNW 22:58:05 64° W 23:00:53 31° SSW
SL-24 R/B - RUBIN 2 4.5 22:53:28 10° NW 22:59:10 62° WSW 23:01:44 35° S
BREEZE-M DEB (TANK) 4.5 22:45:08 10° WSW 23:02:07 73° S 23:06:50 10° E
ERS-2 3.4 23:01:23 27° E 23:02:14 31° ENE 23:05:31 10° N
Nadezhda 2 Rocket 4.5 22:57:12 10° N 23:03:27 74° E 23:06:12 35° SSE
COSMOS 2455 2.8 23:02:17 33° S 23:05:05 66° ESE 23:11:05 10° NE
Cosmos 2369 Rocket 3.7 23:01:19 10° NNW 23:06:24 31° NE 23:10:58 12° ESE
SeaSat 1 3.0 23:02:57 10° NE 23:07:36 40° ESE 23:08:26 37° SE
NOSS 3-1 (A) 4.4 23:03:25 10° WSW 23:09:02 48° NW 23:15:37 10° NE
Cosmos 1633 3.9 23:09:58 26° WSW 23:11:08 33° WNW 23:14:26 10° N
Cosmos 1437 3.1 23:14:38 52° NE 23:14:38 52° NE 23:17:14 10° NNE
Cosmos 1703 Rocket 3.6 23:11:17 10° NNW 23:15:46 74° W 23:16:53 49° SSW
USA 215 4.4 23:12:16 10° ENE 23:18:24 45° N 23:24:33 10° WNW
Okean 1-7 2.9 23:14:21 10° N 23:18:40 84° W 23:19:38 54° S
Okean 1 4.0 23:15:02 10° N 23:18:56 44° ENE 23:19:42 39° ESE
SAR-Lupe-3 4.4 23:16:08 10° NNE 23:19:44 83° WNW 23:20:06 70° SW
Gbstr 26 Del rocket 2.6 23:16:58 10° WNW 23:20:44 80° NNE 23:21:55 42° E
Cosmos 841 Rocket 3.6 23:16:01 10° NNW 23:21:06 60° WSW 23:22:38 41° SSW
Cosmos 1486 Rocket 4.5 23:21:40 38° SE 23:22:56 45° ESE 23:27:58 10° NNE
Cosmos 1812 3.8 23:21:59 10° NNW 23:25:29 33° W 23:26:10 31° WSW
Cosmos 1763 Rocket 4.5 23:20:50 10° NW 23:25:31 35° WSW 23:27:06 28° SW
Cosmos 1933 Rocket 4.5 23:24:53 28° SW 23:26:39 42° WNW 23:30:50 10° N
ISS -3.3 23:25:13 10° WNW 23:28:32 61° NNE 23:29:25 42° ENE
CENTAUR R/B 4.1 23:22:06 10° NW 23:29:21 44° NNE 23:37:22 10° ESE
NOSS 3-2 (A) 4.3 23:22:24 10° NW 23:29:39 64° NE 23:37:21 12° ESE
Meteor 1-29 2.8 23:28:05 10° NNE 23:31:33 84° ESE 23:31:33 84° ESE
Lacrosse 5 rocket 2.2 23:28:45 10° WNW 23:32:58 39° SW 23:32:58 39° SW
SL-16 R/B 2.1 23:33:50 38° SSW 23:36:05 80° ESE 23:41:47 10° NNE
ATLAS 3B R/B 3.7 23:30:26 10° NW 23:36:44 42° NE 23:43:05 10° ESE
ALOS 2 2.9 23:36:02 45° SW 23:36:55 55° W 23:41:15 10° NNW
Lacrosse 5 2.0 23:32:54 10° WNW 23:37:49 52° SW 23:38:38 47° SSW
Cosmos 2221 Rocket 3.5 23:37:20 10° N 23:41:54 86° E 23:42:53 55° SSE
SL-4 R/B 2.8 23:44:02 10° WNW 23:48:49 61° N 23:53:23 10° E
Meteor 2-4 Rocket 4.3 23:45:39 10° N 23:51:16 51° ENE 23:53:53 29° SE
Cosmos 2237 Rocket 3.4 23:46:18 11° WSW 23:51:21 38° NW 23:56:36 10° NNE
Cosmos 1869 Rocket 3.8 23:50:26 46° SW 23:51:31 62° WNW 23:55:52 10° N
Cosmos 1943 4.4 23:50:46 24° SE 23:52:04 26° ESE 23:56:38 10° NE
Cosmos 1315 Rocket 3.6 23:49:43 10° NNW 23:53:25 38° W 23:53:49 37° WSW
